Home > Weather > Stellenbosch > Past weeks

Flag for South Africa Weather for the Past 2 Weeks in Stellenbosch, South Africa

Now
72 °F

Passing clouds.


Feels Like: 77 °F
Forecast: 47 / 85 °F
Wind: 10 mph from South

Location: Cape Town International Airport

Current Time: May 4, 2016 at 2:39:08 PM

Latest Report: May 4, 2016 at 2:00 PM


Visibility: N/A

Pressure: 30.12 "Hg

Humidity: 53%

Dew Point: 54 °F

Location of StellenboschLocation

Historic Weather in Stellenbosch — Graph

°F

Stellenbosch Temperature Yesterday

Maximum temperature yesterday: 68 °F (at 12:00 PM)
Minimum temperature yesterday: 57 °F (at 3:00 AM)
Average temperature yesterday: 62 °F

High & Low Weather Summary for the Past Weeks

 TemperatureHumidityPressure
High79 °F (Apr 19, 2:00 PM)94% (Apr 19, 8:00 PM)30.33 "Hg (Apr 19, 8:00 PM)
Low43 °F (May 1, 8:00 AM)46% (Apr 23, 3:00 PM)29.53 "Hg (Apr 22, 4:00 PM)
Average60 °F77%30.04 "Hg
* Reported Apr 19 1:00 PM — May 4 1:00 PM, Stellenbosch, Weather by CustomWeather, © 2016

Note: Actual official high and low records may vary slightly from our data, if they occured in-between our weather recording intervals... More about our weather records

Advertising

Stellenbosch Weather History for the Previous 24 Hours

Scroll right to see more
 ConditionsComfort  
Time TempWeatherWind HumidityBarometerVisibility
1:00 PM
Wed, May 4
72 °FPassing clouds.8 mph50%30.15 "HgN/A
12:00 PM72 °FSunny.9 mph50%30.15 "Hg10 mi
11:00 AM72 °FPassing clouds.3 mph57%30.15 "HgN/A
10:00 AM66 °FPassing clouds.2 mph68%30.15 "HgN/A
9:00 AM61 °FPassing clouds.2 mph83%30.15 "HgN/A
8:00 AM52 °FPassing clouds.6 mph88%30.15 "HgN/A
7:00 AM50 °FSunny.No wind94%30.12 "Hg10 mi
6:00 AM54 °FClear.2 mph88%30.12 "Hg10 mi
5:00 AM59 °FClear.8 mph82%30.12 "Hg10 mi
4:00 AM55 °FClear.2 mph88%30.12 "Hg10 mi
3:00 AM55 °FClear.3 mph82%30.15 "Hg10 mi
2:00 AM57 °FClear.No wind88%30.15 "Hg10 mi
1:00 AM59 °FPassing clouds.5 mph77%30.15 "HgN/A
12:00 AM63 °FClear.13 mph77%30.18 "Hg10 mi
11:00 PM
Tue, May 3
63 °FClear.13 mph77%30.18 "Hg10 mi
10:00 PM61 °FClear.12 mph83%30.18 "Hg10 mi
9:00 PM61 °FClear.12 mph83%30.18 "Hg10 mi
8:00 PM61 °FClear.14 mph83%30.18 "Hg10 mi
7:00 PM63 °FClear.10 mph77%30.18 "Hg10 mi
6:00 PM63 °FClear.15 mph77%30.15 "Hg10 mi
5:00 PM66 °FSunny.14 mph68%30.15 "Hg10 mi
4:00 PM68 °FPassing clouds.18 mph69%30.15 "HgN/A
3:00 PM68 °FPassing clouds.17 mph64%30.18 "HgN/A
2:00 PM68 °FSunny.17 mph64%30.18 "Hg10 mi
Weather by CustomWeather, © 2016

See weather overviewHow to use our weather pages